Location: Unspecified
(35.6961°N, 0.0000°E)
Time: 18:58:41
(UTC+00:00)

Vanguard 2 Rocket - Pass Details

Date: 29 May 2019
Orbit: 554 x 3326 km, 32.9° (Epoch: 16 June)

Event Time Altitude Azimuth Distance (km) Brightness Sun altitude
Rises 03:31:22 0° 234° (SW) 7,044 - -13.6°
Reaches altitude 10° 03:35:59 10° 231° (SW) 6,176 - -12.9°
Exits shadow 03:37:43 14° 230° (SW) 5,851 10.3 -12.6°
Maximum altitude 03:55:52 62° 157° (SSE) 3,411 9.7 -9.6°
Drops below altitude 10° 04:11:35 10° 82° (E) 5,037 11.9 -7.0°
Sets 04:14:52 0° 79° (E) 5,739 12.5 -6.4°
